Vertical_Velocity
-0 2 3 3 4 4 2 2 2 2 1 4 5 3 -2 -2 -0 2 3 4 4 4 3 3 3 2 2 2 2 2 3 3 3 3 3 4 4 4 3 -0 -3 -4 -3 -2 -2 -2 -4 -4 -5 -6 -9 -8 -5 -2 0 -1 -2 -3 -3 -4 -3 -1 1 2 4 5 6 6 5 3 1 -0 -1 -1 -0 0 0 -0 -1 -3 -3 -3 -3 -3 -3 -2
1 2 3 4 5 5 4 4 4 4 3 3 3 0 -3 -1 1 2 2 3 4 5 4 2 2 1 1 2 2 2 2 2 2 2 3 3 3 3 3 2 1 -1 -1 -0 0 1 1 2 2 0 -2 -1 2 4 5 3 2 3 4 3 2 2 2 2 3 5 5 5 5 4 3 1 1 0 0 0 -0 -1 -3 -4 -4 -4 -3 -3 -2 -2
0 2 3 4 4 4 4 5 6 7 7 4 2 -0 -2 -1 0 1 1 2 4 5 3 2 1 1 1 1 1 1 2 2 1 1 1 2 2 2 2 1 1 1 1 1 1 1 1 2 3 3 2 4 4 5 5 4 4 5 5 5 4 3 2 3 4 5 4 4 4 3 3 1 1 0 -0 -1 -2 -3 -4 -4 -4 -3 -3 -2 -2 -2
-1 0 2 4 3 2 2 3 5 8 10 8 5 3 2 1 1 1 1 1 1 2 2 2 2 2 1 1 1 1 1 1 1 1 1 1 1 1 1 1 1 1 2 3 3 3 2 3 3 3 4 5 5 5 5 5 5 5 5 5 4 4 3 4 4 3 2 2 1 1 1 0 -0 -1 -2 -3 -4 -5 -5 -5 -4 -3 -2 -2 -1 -1
-0 0 2 4 3 2 2 3 6 9 10 9 7 6 5 4 3 3 3 1 -0 -0 1 2 3 3 2 1 0 0 0 0 1 1 1 2 2 1 0 1 1 3 4 5 5 5 5 4 4 4 4 5 5 5 5 5 5 5 5 4 4 3 3 2 2 1 -0 -0 -1 -1 -1 -1 -2 -3 -4 -5 -5 -5 -5 -4 -3 -2 -1 -1 -1 -1
-1 0 2 4 4 2 -1 2 6 9 10 8 7 5 5 5 4 3 3 1 0 1 2 2 3 4 4 2 1 0 0 0 1 1 1 2 2 2 0 0 2 4 5 6 6 6 5 5 4 4 4 4 4 4 4 4 3 3 3 2 1 0 -0 -1 -2 -2 -2 -2 -2 -2 -2 -3 -4 -4 -5 -5 -5 -5 -4 -3 -2 -1 -0 -0 0 0
-2 1 5 5 5 3 -1 -1 3 6 7 5 6 7 8 7 7 5 3 1 1 2 3 3 3 3 3 3 2 1 1 1 1 1 2 2 2 2 1 1 2 4 6 6 5 4 3 3 2 2 2 2 2 2 2 1 1 0 -1 -1 -2 -3 -4 -4 -4 -4 -4 -3 -3 -3 -3 -3 -4 -5 -5 -4 -4 -3 -2 -1 -0 0 1 1 1 1
-1 3 7 7 8 7 6 3 3 3 2 1 2 6 9 10 9 8 5 3 3 3 4 4 4 3 3 3 2 2 1 2 2 2 3 3 3 4 3 3 4 5 6 6 4 3 2 1 0 0 0 0 0 0 0 -0 -1 -2 -2 -3 -4 -4 -4 -4 -4 -4 -3 -2 -2 -2 -2 -3 -3 -3 -3 -2 -1 -1 0 1 1 1 1 1 1 1
0 4 7 6 6 6 8 7 4 -0 -2 -1 -1 1 3 5 6 7 6 5 5 5 5 4 3 4 4 3 3 2 3 3 3 2 3 3 4 4 5 5 6 6 7 5 4 2 1 -0 -1 -1 -0 0 0 1 0 -0 -1 -1 -2 -2 -3 -3 -2 -2 -2 -1 -1 -1 -1 -1 -1 -1 -1 -1 -1 -0 0 1 1 1 1 1 1 1 1 0
1 2 4 6 5 4 4 4 0 -3 -4 -2 -0 -0 -3 -3 -1 1 3 4 5 6 6 5 4 3 3 3 3 3 4 4 5 4 4 4 4 4 4 5 5 6 6 4 3 1 0 -0 -0 0 1 2 2 2 2 1 1 1 0 -0 -0 -0 -0 0 0 0 0 0 0 0 1 1 0 0 0 0 0 1 1 1 0 0 -0 -0 -0 -1
1 -0 1 5 8 9 7 2 -2 -4 -3 1 6 8 6 -0 -4 -5 -4 -1 2 6 8 7 4 1 -1 1 2 3 3 4 4 5 6 6 6 5 5 5 4 4 4 3 2 1 0 0 1 2 3 4 4 4 4 3 3 2 2 2 2 2 2 1 1 1 1 0 0 0 1 1 0 0 0 -0 -0 -0 -0 -1 -1 -1 -1 -1 -1 -1
1 -2 -3 -1 4 9 12 9 6 2 2 6 10 12 13 8 3 -2 -6 -6 -3 1 4 3 1 -1 -3 -2 -0 1 1 1 2 2 4 5 6 6 5 5 5 4 3 3 2 2 2 2 3 4 5 5 5 5 5 4 4 3 3 3 3 2 2 2 1 1 0 0 -0 -0 -0 -0 -0 -0 -0 -1 -1 -1 -1 -1 -2 -2 -2 -2 -2 -2
4 -0 -3 -4 -2 2 7 11 12 11 10 8 5 2 -0 2 6 8 6 0 -2 -3 -3 -2 -1 -1 -1 -1 -1 -1 -1 -0 -0 -1 -1 0 1 2 3 3 3 2 2 2 2 3 3 4 5 5 5 5 5 5 4 4 3 3 3 3 3 2 2 2 1 1 0 -0 -0 -0 -1 -1 -1 -1 -1 -1 -1 -1 -1 -2 -2 -2 -2 -3 -3 -3
5 5 3 0 -1 -1 1 3 4 5 5 3 -1 -6 -11 -5 3 11 14 9 5 2 0 -1 -1 -0 2 3 1 -1 -2 -1 -1 -1 -1 -0 -0 -0 1 1 1 0 -0 -0 0 1 1 3 4 5 5 5 5 4 4 3 3 3 3 2 2 2 2 1 1 0 -0 -0 -0 -0 -1 -1 -1 -1 -0 -1 -1 -1 -1 -2 -2 -2 -2 -3 -3 -3
4 6 7 4 2 1 1 1 0 -1 -3 -1 0 2 3 5 8 10 9 6 5 5 6 4 3 3 4 4 3 2 1 1 0 0 1 1 1 1 2 2 1 1 1 1 1 1 1 2 3 3 3 4 3 3 2 2 2 2 2 2 2 2 1 1 0 -0 -0 -0 -0 -0 -1 -1 -1 -0 -0 -0 -0 -1 -1 -1 -1 -2 -2 -2 -3 -3
4 5 7 6 5 5 4 3 2 -0 -1 -0 3 7 10 11 10 7 2 -2 -1 2 5 6 6 7 9 7 6 4 3 4 2 -0 -1 0 1 2 3 4 3 2 2 3 3 4 4 5 4 4 4 4 3 3 2 2 2 2 2 2 2 2 1 1 0 -0 -0 -1 -0 -0 -0 -0 -0 -0 -0 -0 -0 -0 -1 -1 -1 -1 -2 -2 -2 -3
4 6 8 6 5 5 6 5 4 3 1 1 1 2 4 5 5 3 -1 -2 0 2 2 0 -0 1 4 8 10 9 6 4 1 0 1 1 2 3 3 4 3 3 3 4 4 4 5 5 5 5 4 5 4 3 3 2 2 2 2 2 2 1 1 0 -0 -0 -0 -0 -0 -0 -0 -0 -0 -0 -0 -0 -0 -0 -0 -1 -1 -1 -1 -2 -2 -2
2 5 6 3 2 2 3 4 4 4 3 1 0 -1 -2 1 3 4 2 4 4 4 2 0 -4 -7 -7 -1 5 9 9 6 3 2 5 4 3 3 3 4 4 4 4 5 5 5 5 5 5 4 4 5 5 4 3 2 2 2 2 2 2 1 1 0 0 -0 -0 -0 -0 -0 -1 -0 -0 -0 -0 -0 -0 -0 -0 -1 -1 -1 -1 -2 -2 -2
0 1 3 2 1 -0 0 2 3 3 2 1 -0 -1 -2 -2 1 3 3 4 4 3 1 -1 -3 -5 -8 -8 -4 2 7 8 6 3 4 4 3 3 3 4 5 6 7 6 6 5 6 6 5 5 5 5 5 4 3 2 2 2 2 2 1 1 1 0 0 0 -0 -0 -1 -1 -0 -0 -0 -0 -0 -0 -0 -0 -0 -1 -1 -1 -2 -2 -2 -2
-0 0 1 1 1 2 2 1 1 1 1 1 1 -0 -2 -2 -1 -0 0 -0 0 2 3 2 -1 -4 -8 -8 -4 0 5 9 8 4 -0 -0 1 2 2 3 4 5 7 6 5 5 6 6 5 4 4 5 5 4 3 2 2 2 1 1 1 1 1 1 0 0 -0 -1 -1 -1 -0 -0 0 0 0 0 0 -0 -1 -1 -2 -2 -2 -3 -3 -2
2 2 1 -0 1 3 4 2 0 -1 0 2 2 1 -0 -1 -1 -1 -1 -1 0 3 7 8 4 -2 -7 -6 -4 -2 -1 5 5 2 -2 -1 1 3 3 2 1 2 4 5 4 4 5 6 5 3 3 4 4 4 3 2 2 1 1 1 1 1 1 0 0 -0 -1 -1 -1 -0 -0 0 0 0 1 0 0 -0 -1 -1 -2 -2 -3 -3 -3 -2
5 4 3 2 2 2 2 2 1 2 2 3 3 2 -0 -2 -3 -2 -1 -0 2 4 5 4 1 -1 -3 -2 -2 -3 -4 -0 -0 -1 -2 1 4 5 4 2 1 1 3 4 5 5 6 6 5 4 4 4 4 3 2 2 2 2 2 2 1 1 0 -0 -0 -0 -0 -0 -0 -0 -0 0 0 1 1 0 0 -0 -1 -2 -2 -2 -2 -2 -2 -2
6 5 5 5 5 3 1 1 2 4 5 4 3 2 0 -2 -3 -3 -1 -1 -0 -1 -3 -3 -1 1 2 4 4 3 1 0 -0 -0 0 1 4 6 4 2 1 2 2 4 5 5 5 4 3 3 3 4 3 2 2 2 3 3 3 2 1 0 -0 -0 -0 -0 -0 -0 -0 -0 -0 0 0 1 1 0 -0 -1 -1 -2 -2 -2 -1 -1 -2 -2
5 5 5 6 6 5 3 3 3 4 4 3 2 2 1 0 0 0 -0 -1 -1 -1 -0 3 5 7 7 7 7 6 4 3 3 2 2 1 2 4 5 5 5 4 3 4 3 2 3 2 1 0 1 3 4 3 2 3 4 4 3 1 0 -0 -0 0 0 0 0 -0 -0 -0 -0 -0 0 0 0 0 -0 -1 -1 -1 -1 -1 -0 -1 -1 -2
3 2 1 2 3 3 4 4 3 2 2 1 2 2 3 4 4 4 3 3 3 5 6 8 8 7 5 4 4 3 3 3 3 2 0 0 2 4 4 7 7 6 5 3 2 3 3 2 1 -0 0 3 4 4 3 4 4 3 2 1 0 -0 -0 0 0 0 -0 -0 -1 -1 -1 -0 -0 0 1 0 -0 -1 -1 -1 -1 -0 0 -0 -1 -2
4 2 1 -0 -0 1 2 3 2 1 1 1 1 2 3 4 6 7 9 9 8 6 6 6 5 3 1 -0 1 3 5 4 4 4 2 2 3 2 -0 2 4 6 7 6 7 9 8 5 3 1 1 2 3 3 4 4 3 2 2 2 2 1 1 0 0 0 -0 -1 -1 -1 -1 -1 -0 1 1 1 -0 -1 -1 -1 -1 -0 0 -0 -1 -2
6 6 5 3 1 1 2 3 3 3 2 1 2 3 4 4 5 6 8 7 6 4 2 2 1 1 1 1 3 5 5 4 5 6 7 6 3 -1 -4 -4 -2 2 6 8 10 11 9 5 3 2 1 0 -0 1 2 3 3 3 4 3 3 2 1 1 0 0 -0 -1 -1 -1 -1 -1 0 1 1 1 0 -1 -1 -1 -1 -0 0 -0 -1 -2
3 4 5 5 4 3 3 5 6 5 4 3 3 4 5 5 5 4 3 1 1 2 3 1 -1 -1 0 2 4 4 3 2 3 5 7 8 4 -1 -4 -5 -4 -1 2 5 7 8 7 4 3 1 1 -0 -2 -2 -2 -1 1 2 3 3 3 3 2 1 1 1 1 -0 -1 -1 -1 -1 0 1 2 1 1 -1 -2 -2 -1 -0 -0 -1 -1 -2
0 1 3 4 4 4 3 5 6 7 6 5 4 4 5 5 4 2 -0 -1 1 3 5 3 1 -1 -2 -0 2 3 2 3 4 5 6 6 4 1 -2 -2 -1 1 1 0 2 5 6 5 3 2 0 -0 -1 -2 -2 -2 -2 -1 0 2 3 4 3 2 1 1 1 1 -0 -1 -1 -0 0 1 2 1 1 -1 -2 -2 -1 -1 -1 -1 -1 -2
-1 -0 1 2 3 3 3 4 5 6 6 5 5 5 5 5 4 3 2 3 4 4 3 3 3 2 1 1 2 4 5 5 4 4 5 5 4 2 0 1 3 4 2 -2 -0 3 7 6 4 2 0 -0 -0 -1 -1 -1 -1 -0 1 2 4 4 3 2 1 1 1 1 0 -0 -1 -0 0 1 2 1 1 -1 -2 -3 -2 -1 -1 -1 -2 -2
-1 -1 -0 1 2 2 2 3 3 4 4 4 5 5 6 6 7 6 6 7 6 5 3 3 4 5 4 2 1 1 2 3 2 3 3 3 2 -0 -2 -1 3 6 3 -2 -4 -4 1 4 4 3 2 2 2 1 1 1 1 1 2 3 4 4 3 1 1 0 0 0 -0 -1 -1 -1 0 1 1 1 1 -0 -2 -2 -2 -2 -2 -1 -2 -2
-1 -1 -1 -0 0 1 1 1 1 2 2 2 3 4 5 7 8 8 9 9 8 7 5 4 4 4 5 2 -1 -3 -4 -2 -0 2 4 3 1 -1 -3 -1 2 4 3 2 -2 -6 -8 -5 -2 1 3 2 2 1 0 1 1 1 1 2 3 2 1 1 0 0 0 -0 -1 -2 -2 -1 -0 0 1 1 1 -0 -1 -2 -2 -2 -2 -2 -2 -3
-1 -1 -1 -1 -0 0 0 0 0 0 0 1 1 2 3 5 6 7 7 8 8 8 7 6 5 4 5 4 2 -1 -3 -2 0 2 3 2 1 -0 0 2 3 4 3 5 4 1 -6 -8 -6 -3 -0 0 -1 -1 -2 -1 0 1 1 1 1 1 -0 -0 -0 -0 -0 -1 -2 -2 -2 -1 -1 0 1 1 0 -0 -1 -2 -2 -2 -2 -2 -2 -3
-1 -1 -1 -1 -1 -0 0 0 0 -0 -0 -0 0 1 1 2 3 4 4 5 6 6 7 7 6 5 5 6 6 5 3 3 3 4 3 2 0 -0 2 4 4 4 3 5 6 6 3 1 -0 -1 -1 -1 -1 -2 -2 -1 -0 1 1 0 -0 -0 -1 -1 -0 -0 -0 -1 -1 -2 -1 -1 -0 0 0 0 -0 -1 -1 -2 -2 -2 -2 -2 -2 -3
0 0 -0 -1 -1 -1 0 1 1 1 0 -0 -0 0 0 1 1 1 2 2 2 3 3 4 4 4 3 4 5 5 6 6 6 5 4 3 2 2 4 5 5 4 3 4 4 4 4 6 5 3 -1 -1 -1 -0 -0 -0 0 0 -0 -1 -1 -1 -1 -1 -0 0 0 0 -0 -0 -0 0 0 0 0 -0 -1 -1 -2 -2 -2 -2 -2 -2 -2 -3
-0 0 0 -0 -1 -1 -0 0 1 1 1 1 1 0 0 0 -0 -0 -0 0 0 0 0 1 1 1 2 3 3 3 4 5 6 5 5 5 5 5 5 5 5 5 4 4 4 3 1 3 4 3 1 0 -0 -0 0 0 0 1 0 -1 -1 -2 -2 -1 -1 0 1 1 1 0 0 0 0 0 -0 -1 -1 -2 -2 -2 -2 -2 -2 -2 -2 -2
-1 -1 -0 -0 -0 -1 -0 0 1 1 1 1 1 1 1 1 0 -0 -0 -0 -0 -0 -1 -1 -1 -0 0 1 2 3 3 4 5 5 4 5 6 7 6 4 4 5 5 5 5 4 2 2 3 3 2 1 1 0 -0 0 1 1 0 -1 -2 -3 -2 -2 -1 0 1 1 0 0 0 0 0 -0 -1 -1 -2 -2 -2 -2 -2 -2 -1 -1 -1 -2
-2 -2 -1 -1 -1 -1 -0 -0 0 0 1 1 1 1 1 1 1 1 0 0 0 0 -0 -0 -0 -0 -0 0 1 2 2 3 4 4 4 4 5 6 7 5 4 4 4 4 3 3 3 3 3 2 1 1 1 1 1 1 0 -0 -1 -2 -3 -3 -2 -2 -1 -0 1 1 0 -0 -0 -0 -0 -1 -1 -2 -2 -2 -3 -3 -3 -2 -1 -1 -1 -2
-3 -2 -2 -1 -1 -1 -1 -1 -1 -0 1 1 1 1 1 1 1 1 0 0 0 0 1 0 0 0 0 0 0 0 1 2 2 3 3 3 3 4 5 5 4 3 3 2 1 1 1 1 1 0 -1 -0 1 2 3 1 0 -1 -2 -2 -1 -1 -1 -1 -0 0 1 0 -0 -1 -1 -1 -1 -1 -2 -2 -2 -2 -2 -3 -3 -2 -1 -1 -1 -2
-2 -2 -1 -1 -1 -1 -2 -2 -1 -0 0 1 2 2 2 1 1 0 0 -0 -0 -0 -0 -0 -0 -1 -1 -1 -1 -1 -0 1 2 2 3 3 2 2 2 3 3 3 3 2 2 1 0 0 1 1 1 1 0 1 1 0 0 -0 -0 -1 -0 0 -0 -0 -0 0 0 -0 -1 -1 -2 -2 -2 -2 -2 -2 -2 -2 -1 -2 -2 -2 -2 -1 -1 -2
-1 -1 -1 -1 -1 -1 -1 -1 -1 -1 -0 1 1 2 1 1 1 1 0 0 -0 -0 -0 -0 -1 -1 -2 -2 -2 -2 -1 -0 1 2 2 2 2 1 1 2 2 2 2 2 2 2 1 1 1 1 2 2 1 1 0 0 1 1 0 1 1 1 -0 -0 -0 -1 -1 -1 -1 -2 -2 -3 -3 -2 -2 -2 -2 -2 -1 -1 -1 -2 -2 -2 -2 -2
-2 -2 -1 -1 -1 -1 -1 -1 -1 -1 -0 0 1 1 1 1 1 1 1 1 1 1 1 1 1 0 -0 -1 -1 -1 -1 -0 0 1 1 1 0 0 1 1 1 2 1 1 1 2 2 2 1 1 2 2 1 1 1 1 1 1 2 2 2 2 1 -0 -1 -2 -2 -2 -3 -2 -2 -2 -2 -2 -2 -1 -2 -2 -1 -1 -1 -1 -2 -2 -2 -2
-2 -2 -1 -1 -1 -1 -1 -1 -1 -0 0 0 0 0 0 0 1 1 1 1 1 2 2 2 2 2 2 1 1 1 1 1 0 -0 -1 -1 -1 -1 -0 0 1 1 1 1 1 1 2 2 2 2 2 2 2 1 2 2 2 2 3 3 2 2 2 -0 -3 -4 -3 -3 -3 -3 -3 -2 -2 -1 -1 -1 -1 -1 -1 -1 -1 -1 -1 -1 -2 -2
-2 -2 -1 -1 -1 -1 -0 0 0 1 1 1 1 -0 -0 -0 -0 0 0 0 0 0 1 1 1 2 1 1 1 1 1 1 0 -1 -1 -2 -2 -2 -1 -1 -0 0 0 0 0 0 1 1 1 2 2 2 2 2 2 1 1 1 1 1 1 1 1 -1 -3 -3 -3 -3 -3 -3 -2 -2 -1 -1 -1 -1 -1 -1 -1 -0 -1 -1 -1 -1 -1 -2
-2 -2 -1 -1 -0 0 0 0 1 1 2 1 1 0 -0 0 0 0 -0 -0 -1 -1 -1 -1 -0 0 -0 -0 0 0 0 0 -0 -0 -1 -1 -1 -1 -0 -0 -0 -0 -0 0 0 -0 -0 0 1 1 1 1 1 1 1 1 1 0 -0 -0 -0 -1 -1 -2 -2 -2 -2 -3 -3 -3 -2 -1 -1 -1 -1 -1 -0 -0 0 0 0 0 -0 -1 -1 -2
-2 -1 -1 -0 0 0 -0 0 1 1 1 1 0 -0 -0 0 0 0 -0 -0 -1 -1 -1 -1 -1 -1 -1 -1 -1 -1 -0 -0 -0 -0 0 0 1 1 1 1 1 1 1 1 1 0 0 0 0 0 -0 -1 -1 -1 -0 -0 -1 -1 -1 -1 -2 -2 -2 -2 -2 -1 -1 -2 -2 -2 -1 -0 -0 -0 -1 -0 0 1 1 1 0 -0 -0 -1 -1 -2
-2 -1 -0 0 0 0 0 1 1 1 1 1 0 -0 -0 -0 -0 -0 -0 -1 -1 -1 -1 -1 -1 -1 -2 -2 -2 -1 -1 -1 -1 -0 0 1 1 1 1 1 1 1 1 1 1 1 1 1 0 -0 -1 -1 -1 -1 -1 -1 -1 -2 -1 -2 -2 -2 -2 -2 -1 -1 -1 -1 -1 -1 -0 0 0 -0 -0 -0 0 0 1 1 0 -0 -1 -1 -1 -1
-2 -1 -1 -0 0 1 1 1 1 1 1 1 0 0 -0 -0 -0 -0 -1 -1 -2 -2 -2 -2 -2 -2 -2 -2 -2 -2 -2 -2 -1 -1 -1 -0 -0 0 1 1 1 1 1 1 1 1 1 0 0 -0 -0 -0 0 -0 -0 -1 -1 -1 -1 -1 -1 -1 -1 -1 -1 -1 -1 -1 -1 -0 0 0 -0 -1 -1 -1 -1 -1 -0 -0 -0 -1 -1 -1 -1 -1
-2 -1 -1 0 1 1 1 1 1 1 1 1 0 0 0 0 0 -0 -1 -1 -1 -2 -2 -2 -2 -2 -2 -2 -2 -2 -2 -2 -2 -2 -2 -2 -1 -1 -1 -0 0 1 1 1 1 1 1 0 0 0 1 1 1 1 0 -0 -0 -1 -1 -1 -1 -1 -1 -1 -1 -0 -0 -0 -0 -0 0 -0 -1 -2 -2 -3 -3 -3 -2 -2 -1 -1 -0 -0 -0 -0
-1 -1 -0 0 1 1 2 2 2 1 1 1 0 0 0 0 0 -0 -0 -1 -1 -1 -1 -1 -1 -1 -1 -1 -1 -1 -1 -1 -2 -2 -2 -3 -3 -3 -3 -2 -1 -1 -0 0 1 1 1 0 0 1 1 0 0 0 1 0 -1 -1 -1 -1 -1 -1 -1 -1 -0 -0 -0 -1 -1 -1 -1 -2 -3 -3 -4 -5 -5 -5 -4 -3 -1 -0 1 1 1 0
-0 -0 0 1 1 2 2 2 2 1 1 1 0 0 0 0 0 -0 -0 -1 -1 -1 -1 -1 -1 -1 -1 -1 -1 -1 -1 -1 -1 -2 -2 -3 -3 -3 -3 -3 -3 -2 -2 -2 -1 -1 0 0 0 0 -0 -1 -1 -1 -1 -1 -1 -2 -2 -2 -1 -1 -1 -1 -1 -1 -1 -2 -2 -3 -3 -4 -4 -4 -5 -5 -5 -5 -5 -3 -1 0 2 2 1 1
Height
1416 1417 1419 1420 1421 1422 1424 1425 1427 1429 1430 1431 1432 1434 1435 1437 1438 1440 1441 1442 1444 1445 1447 1448 1449 1450 1451 1452 1454 1455 1456 1457 1458 1459 1460 1461 1462 1464 1465 1466 1468 1470 1472 1474 1475 1476 1478 1480 1481 1483 1485 1486 1488 1489 1491 1492 1493 1494 1496 1497 1499 1501 1501 1502 1502 1502 1502 1502 1502 1502 1503 1504 1505 1506 1506 1507 1508 1509 1510 1511 1512 1513 1514 1514 1515 1516
1414 1416 1417 1419 1420 1421 1422 1424 1425 1427 1428 1430 1431 1432 1434 1436 1438 1439 1441 1442 1443 1445 1446 1447 1449 1450 1451 1452 1453 1454 1456 1456 1458 1459 1460 1461 1462 1464 1465 1466 1468 1470 1472 1474 1475 1476 1478 1479 1481 1482 1484 1486 1487 1488 1489 1491 1492 1493 1494 1496 1497 1498 1500 1501 1501 1501 1501 1501 1501 1501 1502 1503 1503 1504 1505 1506 1506 1507 1509 1510 1511 1512 1513 1514 1514 1515
1413 1414 1416 1417 1418 1419 1420 1422 1423 1425 1427 1429 1430 1431 1433 1435 1436 1438 1440 1441 1443 1444 1446 1447 1448 1449 1451 1451 1452 1453 1455 1456 1457 1458 1459 1461 1462 1463 1465 1466 1468 1470 1471 1473 1474 1476 1477 1479 1480 1481 1483 1484 1486 1487 1488 1489 1491 1492 1493 1494 1495 1496 1498 1499 1499 1499 1500 1500 1500 1501 1501 1502 1502 1503 1504 1505 1506 1507 1508 1510 1511 1511 1512 1513 1513 1514
1411 1413 1414 1415 1416 1417 1419 1421 1422 1424 1425 1427 1429 1431 1432 1434 1436 1437 1439 1440 1442 1444 1445 1447 1448 1449 1450 1451 1452 1453 1454 1455 1456 1457 1459 1460 1461 1463 1465 1466 1468 1470 1471 1473 1474 1475 1476 1478 1479 1481 1482 1483 1485 1486 1487 1488 1489 1491 1492 1493 1494 1495 1496 1497 1497 1498 1498 1499 1500 1500 1501 1501 1501 1502 1503 1504 1505 1507 1508 1509 1510 1511 1512 1512 1513 1513
1410 1411 1412 1414 1415 1416 1417 1419 1421 1423 1424 1426 1428 1430 1431 1433 1435 1436 1438 1440 1441 1443 1445 1446 1447 1448 1449 1450 1451 1452 1454 1455 1456 1457 1458 1460 1461 1462 1464 1466 1468 1469 1471 1472 1473 1474 1476 1477 1478 1480 1481 1482 1484 1485 1486 1487 1488 1489 1491 1491 1493 1494 1495 1495 1496 1497 1497 1498 1499 1499 1500 1501 1501 1502 1503 1504 1505 1507 1508 1509 1510 1511 1511 1511 1512 1512
1408 1410 1411 1412 1413 1414 1416 1418 1420 1421 1423 1425 1427 1429 1431 1432 1434 1436 1437 1439 1441 1443 1444 1445 1446 1447 1449 1450 1451 1452 1453 1455 1456 1457 1458 1460 1461 1462 1464 1466 1467 1469 1470 1471 1472 1473 1475 1476 1477 1479 1480 1481 1483 1484 1485 1486 1487 1488 1490 1491 1491 1492 1493 1494 1495 1496 1497 1498 1498 1499 1500 1500 1501 1502 1503 1504 1506 1506 1508 1509 1509 1510 1510 1511 1511 1511
1407 1409 1410 1411 1411 1413 1415 1417 1419 1421 1422 1424 1426 1427 1430 1431 1433 1435 1436 1438 1440 1442 1443 1444 1445 1446 1448 1449 1451 1452 1453 1455 1456 1457 1458 1460 1461 1462 1464 1465 1467 1468 1469 1470 1471 1472 1474 1475 1476 1478 1480 1481 1482 1483 1484 1486 1486 1488 1489 1490 1491 1491 1492 1494 1495 1496 1496 1497 1498 1499 1499 1500 1501 1502 1503 1504 1505 1506 1507 1508 1508 1509 1509 1509 1510 1510
1406 1407 1408 1409 1410 1411 1413 1416 1418 1420 1421 1423 1425 1426 1428 1430 1432 1434 1435 1437 1439 1441 1442 1443 1444 1446 1447 1448 1450 1451 1453 1454 1456 1457 1458 1459 1461 1462 1463 1465 1466 1467 1468 1469 1471 1472 1473 1475 1476 1478 1479 1481 1482 1483 1484 1485 1486 1487 1488 1489 1490 1491 1492 1493 1494 1495 1496 1497 1497 1498 1499 1500 1501 1502 1503 1504 1505 1505 1506 1506 1507 1507 1507 1508 1508 1508
1405 1406 1407 1407 1409 1411 1412 1414 1416 1418 1420 1422 1424 1425 1426 1428 1430 1432 1434 1436 1438 1439 1441 1442 1444 1445 1446 1448 1449 1451 1452 1453 1455 1456 1457 1459 1460 1461 1463 1465 1466 1467 1468 1469 1470 1471 1473 1475 1476 1477 1479 1480 1481 1482 1483 1484 1485 1486 1487 1488 1489 1490 1491 1492 1493 1494 1495 1496 1497 1498 1499 1500 1501 1501 1502 1503 1503 1504 1505 1505 1505 1506 1506 1506 1507 1507
1404 1405 1406 1407 1408 1410 1411 1413 1415 1417 1419 1421 1423 1424 1426 1427 1429 1431 1433 1435 1436 1438 1440 1441 1443 1444 1446 1447 1448 1450 1451 1453 1454 1456 1457 1458 1460 1461 1462 1464 1465 1466 1467 1469 1470 1471 1473 1475 1476 1477 1479 1480 1481 1481 1482 1483 1484 1485 1486 1487 1488 1489 1491 1491 1492 1493 1495 1496 1496 1497 1498 1499 1500 1501 1501 1502 1502 1503 1503 1503 1504 1504 1505 1505 1505 1506
1404 1405 1405 1406 1407 1409 1411 1412 1414 1416 1418 1421 1422 1424 1426 1426 1428 1430 1431 1433 1435 1437 1439 1440 1441 1443 1444 1446 1447 1449 1450 1452 1453 1455 1456 1458 1459 1461 1462 1463 1465 1466 1467 1468 1470 1471 1473 1474 1476 1477 1478 1479 1480 1481 1481 1482 1483 1484 1486 1486 1488 1489 1490 1491 1492 1493 1494 1495 1496 1497 1498 1498 1499 1500 1500 1501 1501 1501 1502 1502 1503 1503 1503 1504 1504 1505
1404 1405 1405 1406 1407 1408 1410 1411 1414 1416 1418 1419 1421 1422 1424 1425 1427 1428 1430 1432 1434 1436 1437 1438 1440 1441 1443 1444 1446 1447 1449 1451 1452 1454 1456 1457 1459 1460 1461 1463 1464 1466 1467 1468 1470 1471 1472 1474 1475 1476 1477 1478 1479 1480 1481 1482 1483 1484 1485 1486 1487 1488 1489 1490 1491 1492 1493 1494 1495 1496 1497 1497 1498 1499 1499 1499 1500 1500 1501 1501 1501 1502 1502 1503 1503 1503
1403 1405 1406 1406 1407 1408 1409 1411 1412 1414 1416 1417 1419 1420 1421 1424 1426 1428 1429 1431 1432 1434 1436 1437 1439 1441 1442 1444 1445 1446 1448 1449 1451 1453 1454 1456 1457 1459 1461 1462 1463 1465 1466 1467 1469 1471 1472 1473 1474 1476 1476 1477 1478 1479 1481 1481 1482 1483 1485 1486 1486 1487 1488 1489 1490 1491 1492 1493 1494 1495 1496 1496 1497 1497 1498 1498 1499 1499 1500 1500 1501 1501 1501 1502 1502 1502
1403 1404 1406 1407 1407 1408 1409 1410 1411 1412 1414 1415 1417 1418 1420 1422 1425 1426 1428 1429 1431 1433 1435 1436 1438 1439 1441 1443 1445 1446 1447 1449 1450 1452 1453 1455 1456 1458 1460 1461 1462 1464 1465 1466 1468 1469 1471 1472 1473 1475 1476 1477 1478 1479 1480 1481 1482 1483 1484 1485 1486 1486 1487 1488 1489 1490 1491 1492 1493 1494 1494 1495 1496 1496 1497 1497 1498 1498 1499 1499 1499 1500 1500 1501 1501 1501
1403 1404 1405 1406 1407 1408 1409 1409 1410 1411 1413 1414 1416 1418 1420 1422 1423 1425 1426 1427 1429 1431 1433 1435 1436 1438 1440 1442 1444 1445 1446 1448 1449 1451 1452 1454 1456 1457 1459 1460 1461 1463 1464 1466 1467 1468 1470 1471 1472 1473 1475 1476 1477 1478 1479 1480 1481 1482 1483 1484 1485 1486 1486 1487 1488 1489 1490 1491 1491 1492 1493 1494 1495 1495 1496 1496 1497 1497 1498 1498 1498 1499 1499 1500 1500 1500
1402 1404 1405 1406 1406 1408 1408 1409 1410 1411 1412 1414 1416 1417 1419 1420 1421 1423 1424 1426 1428 1430 1431 1433 1435 1437 1439 1441 1443 1444 1446 1447 1448 1449 1451 1453 1454 1456 1458 1459 1461 1462 1463 1465 1466 1468 1469 1470 1471 1473 1474 1475 1476 1477 1478 1479 1480 1481 1482 1483 1484 1485 1486 1486 1487 1488 1489 1490 1491 1491 1492 1493 1493 1494 1495 1495 1496 1496 1496 1497 1497 1498 1498 1498 1499 1499
1402 1403 1405 1405 1406 1407 1408 1409 1410 1411 1412 1413 1415 1416 1417 1419 1421 1422 1423 1425 1427 1428 1430 1431 1433 1436 1438 1440 1442 1443 1444 1445 1446 1448 1450 1451 1453 1455 1456 1458 1459 1461 1462 1464 1466 1467 1468 1469 1471 1472 1473 1474 1475 1476 1477 1478 1479 1480 1481 1482 1483 1484 1485 1486 1486 1487 1488 1489 1489 1490 1491 1492 1492 1493 1494 1494 1495 1495 1496 1496 1496 1497 1497 1497 1498 1498
1401 1402 1403 1404 1405 1406 1407 1408 1409 1410 1411 1413 1414 1415 1417 1419 1420 1421 1423 1424 1425 1427 1428 1430 1432 1434 1436 1438 1440 1442 1443 1444 1445 1446 1448 1450 1451 1453 1455 1456 1458 1460 1461 1463 1465 1466 1467 1468 1470 1471 1472 1473 1474 1475 1476 1477 1478 1479 1480 1481 1482 1483 1484 1485 1485 1486 1487 1488 1488 1489 1490 1491 1491 1492 1492 1493 1494 1494 1494 1495 1495 1496 1496 1496 1497 1497
1400 1401 1402 1403 1404 1405 1406 1407 1408 1409 1411 1412 1413 1415 1416 1418 1420 1421 1422 1423 1424 1426 1427 1429 1431 1433 1435 1436 1438 1440 1442 1443 1445 1446 1447 1448 1450 1452 1454 1455 1457 1459 1461 1462 1464 1465 1466 1468 1469 1470 1471 1472 1473 1474 1475 1476 1477 1478 1479 1480 1481 1482 1483 1484 1484 1485 1486 1487 1487 1488 1489 1489 1490 1491 1491 1492 1492 1493 1493 1494 1494 1495 1495 1495 1496 1496
1398 1400 1401 1402 1403 1404 1405 1406 1407 1408 1410 1411 1412 1414 1415 1417 1418 1420 1421 1422 1424 1426 1427 1429 1430 1432 1434 1436 1438 1440 1441 1442 1443 1444 1446 1447 1449 1451 1452 1454 1456 1457 1459 1461 1462 1464 1465 1466 1468 1469 1470 1471 1472 1473 1474 1475 1476 1477 1478 1479 1480 1481 1481 1482 1483 1484 1485 1486 1486 1487 1488 1488 1489 1490 1490 1491 1491 1492 1492 1493 1493 1493 1494 1494 1495 1495
1397 1398 1399 1400 1401 1403 1404 1405 1406 1407 1409 1410 1411 1413 1414 1416 1417 1419 1420 1422 1423 1425 1426 1428 1429 1430 1432 1435 1437 1439 1441 1442 1442 1443 1445 1446 1448 1450 1451 1452 1454 1456 1458 1459 1461 1462 1464 1465 1466 1468 1469 1470 1471 1472 1473 1474 1475 1476 1476 1478 1479 1480 1481 1481 1482 1483 1484 1484 1485 1486 1486 1487 1488 1488 1489 1490 1490 1491 1491 1491 1492 1492 1493 1493 1494 1494
1395 1396 1397 1399 1400 1401 1402 1403 1405 1406 1407 1409 1410 1411 1412 1414 1416 1417 1419 1421 1422 1424 1425 1426 1427 1429 1431 1433 1435 1437 1439 1441 1441 1442 1444 1446 1447 1449 1450 1452 1453 1455 1456 1458 1459 1461 1462 1464 1465 1466 1467 1469 1470 1471 1471 1472 1474 1475 1476 1476 1477 1478 1479 1480 1481 1482 1482 1483 1484 1485 1485 1486 1486 1487 1488 1488 1489 1489 1490 1490 1491 1491 1492 1492 1493 1493
1394 1395 1396 1397 1399 1400 1401 1402 1403 1405 1406 1407 1408 1410 1411 1413 1415 1416 1417 1419 1421 1422 1423 1424 1426 1428 1430 1431 1433 1435 1437 1439 1440 1442 1444 1445 1446 1447 1449 1451 1452 1454 1456 1457 1458 1460 1461 1462 1463 1465 1466 1467 1468 1469 1470 1471 1472 1474 1475 1475 1476 1477 1478 1479 1480 1481 1481 1482 1483 1484 1484 1485 1485 1486 1486 1487 1487 1488 1489 1489 1490 1490 1491 1491 1492 1492
1393 1394 1395 1396 1397 1398 1400 1401 1402 1403 1404 1406 1407 1408 1410 1412 1413 1415 1416 1418 1419 1421 1422 1424 1426 1427 1429 1430 1432 1434 1436 1437 1439 1441 1442 1444 1445 1446 1448 1450 1451 1452 1454 1456 1456 1457 1459 1460 1461 1463 1464 1466 1467 1468 1469 1470 1471 1472 1473 1474 1475 1476 1476 1477 1478 1479 1480 1481 1481 1482 1483 1483 1484 1485 1485 1486 1486 1487 1487 1488 1488 1489 1490 1490 1491 1491
1393 1394 1394 1395 1396 1397 1398 1399 1401 1402 1403 1404 1406 1407 1409 1411 1412 1414 1416 1417 1418 1420 1421 1423 1425 1426 1427 1429 1431 1433 1435 1436 1438 1439 1441 1442 1444 1446 1447 1448 1449 1451 1452 1453 1455 1455 1456 1457 1459 1461 1462 1464 1465 1466 1468 1469 1470 1471 1471 1472 1473 1474 1475 1476 1477 1478 1479 1480 1480 1481 1481 1482 1483 1483 1484 1484 1485 1485 1486 1486 1487 1488 1488 1489 1489 1490
1392 1393 1394 1395 1395 1396 1397 1398 1399 1401 1402 1403 1405 1407 1408 1410 1411 1413 1415 1416 1417 1419 1420 1422 1423 1425 1426 1428 1431 1432 1434 1435 1436 1438 1439 1441 1443 1445 1446 1447 1448 1449 1450 1451 1452 1453 1454 1455 1457 1459 1460 1462 1463 1465 1466 1467 1468 1469 1470 1471 1471 1472 1473 1474 1476 1476 1477 1478 1479 1479 1480 1481 1481 1481 1482 1482 1483 1484 1484 1485 1486 1486 1487 1487 1488 1488
1393 1394 1395 1395 1396 1396 1396 1397 1398 1399 1401 1402 1404 1406 1408 1409 1411 1412 1414 1415 1416 1417 1419 1420 1421 1423 1425 1427 1429 1431 1432 1434 1435 1436 1438 1439 1441 1442 1444 1446 1447 1448 1449 1450 1451 1451 1452 1453 1454 1456 1458 1459 1461 1463 1464 1466 1466 1467 1468 1469 1470 1471 1472 1473 1474 1475 1476 1476 1477 1478 1478 1479 1480 1480 1481 1481 1481 1482 1482 1483 1484 1485 1485 1486 1486 1486
1394 1395 1395 1396 1396 1397 1397 1397 1397 1398 1400 1401 1403 1405 1407 1408 1409 1411 1412 1414 1415 1417 1418 1419 1420 1422 1424 1426 1427 1429 1431 1432 1434 1435 1436 1438 1439 1440 1442 1444 1446 1447 1449 1449 1450 1451 1451 1452 1453 1454 1456 1457 1459 1460 1462 1463 1465 1466 1466 1467 1468 1469 1470 1471 1472 1473 1474 1474 1475 1476 1477 1477 1478 1479 1479 1480 1480 1480 1481 1481 1482 1483 1483 1484 1485 1485
1395 1396 1396 1396 1396 1397 1398 1398 1398 1398 1399 1401 1402 1404 1406 1407 1408 1409 1411 1412 1414 1416 1416 1418 1419 1421 1422 1424 1426 1428 1430 1431 1432 1434 1435 1437 1437 1438 1440 1442 1445 1446 1447 1448 1450 1451 1451 1452 1453 1454 1455 1456 1458 1459 1460 1461 1462 1464 1465 1466 1467 1468 1469 1469 1470 1471 1472 1472 1473 1474 1475 1476 1476 1477 1477 1478 1478 1478 1479 1479 1480 1481 1482 1482 1483 1483
1396 1396 1396 1396 1397 1397 1398 1398 1398 1399 1399 1400 1401 1403 1405 1406 1407 1409 1410 1411 1413 1414 1415 1417 1419 1420 1421 1423 1425 1427 1428 1429 1431 1432 1434 1435 1436 1436 1439 1441 1443 1444 1445 1446 1448 1450 1451 1452 1453 1454 1455 1456 1457 1458 1459 1460 1461 1462 1464 1465 1466 1466 1467 1468 1469 1469 1470 1471 1471 1472 1473 1474 1475 1476 1476 1476 1476 1477 1477 1478 1478 1479 1480 1481 1481 1481
1397 1397 1397 1397 1397 1397 1398 1398 1399 1399 1400 1401 1401 1403 1404 1405 1407 1408 1409 1411 1411 1413 1414 1416 1418 1419 1421 1422 1424 1425 1426 1427 1429 1431 1432 1433 1434 1435 1437 1439 1441 1441 1443 1444 1446 1448 1449 1451 1452 1453 1454 1455 1456 1456 1457 1459 1460 1461 1462 1463 1465 1465 1466 1466 1467 1468 1468 1469 1470 1471 1472 1473 1473 1474 1474 1475 1475 1475 1476 1476 1477 1477 1478 1479 1479 1479
1397 1398 1398 1398 1398 1398 1398 1399 1399 1400 1401 1401 1402 1403 1404 1405 1406 1407 1409 1410 1411 1412 1413 1415 1416 1418 1419 1421 1422 1423 1424 1426 1428 1429 1431 1431 1432 1434 1436 1437 1439 1440 1441 1443 1444 1445 1447 1449 1451 1452 1453 1454 1455 1456 1457 1458 1459 1460 1461 1462 1463 1464 1465 1466 1466 1467 1467 1468 1469 1469 1470 1471 1472 1472 1473 1473 1474 1474 1474 1475 1475 1476 1476 1477 1477 1477
1398 1398 1399 1399 1399 1399 1399 1400 1400 1401 1401 1402 1403 1404 1404 1405 1406 1407 1408 1409 1411 1412 1413 1414 1415 1416 1418 1419 1421 1422 1423 1425 1426 1428 1429 1430 1431 1433 1435 1436 1437 1439 1440 1442 1443 1444 1445 1446 1448 1450 1452 1453 1454 1456 1457 1458 1458 1459 1460 1461 1462 1463 1464 1465 1465 1466 1466 1467 1468 1468 1469 1470 1470 1471 1471 1471 1472 1472 1473 1473 1473 1474 1474 1475 1475 1475
1399 1400 1400 1400 1400 1400 1400 1401 1401 1402 1402 1403 1404 1404 1405 1406 1406 1407 1408 1409 1410 1412 1413 1414 1416 1416 1417 1419 1420 1421 1422 1424 1426 1427 1428 1430 1431 1432 1433 1435 1436 1438 1439 1441 1442 1443 1444 1445 1447 1448 1450 1452 1453 1455 1456 1457 1458 1458 1459 1460 1461 1462 1463 1464 1464 1465 1465 1466 1466 1467 1468 1468 1469 1469 1470 1470 1471 1471 1471 1471 1472 1472 1472 1473 1473 1473
1401 1401 1401 1401 1401 1401 1401 1402 1402 1403 1403 1404 1404 1405 1406 1406 1407 1408 1409 1410 1411 1412 1413 1415 1416 1417 1418 1419 1420 1421 1422 1423 1425 1426 1428 1429 1430 1431 1433 1434 1435 1437 1438 1440 1441 1442 1443 1445 1446 1447 1448 1450 1452 1453 1454 1455 1456 1457 1458 1459 1460 1461 1461 1462 1463 1464 1464 1465 1465 1466 1466 1466 1467 1467 1468 1468 1469 1469 1470 1470 1470 1470 1471 1471 1471 1471
1402 1402 1402 1402 1402 1402 1403 1403 1403 1404 1404 1405 1405 1406 1406 1407 1408 1409 1409 1410 1411 1412 1413 1415 1416 1417 1418 1419 1420 1421 1421 1423 1424 1426 1427 1429 1430 1431 1432 1433 1434 1436 1437 1438 1439 1440 1441 1443 1445 1446 1447 1449 1450 1451 1452 1454 1455 1456 1456 1457 1458 1459 1460 1461 1462 1462 1463 1463 1463 1464 1464 1465 1465 1466 1466 1466 1467 1467 1468 1468 1468 1469 1469 1469 1469 1469
1403 1403 1403 1403 1403 1404 1404 1404 1404 1405 1405 1406 1406 1406 1407 1408 1409 1409 1410 1411 1412 1413 1414 1415 1416 1417 1419 1420 1421 1421 1422 1423 1424 1426 1427 1429 1430 1431 1432 1433 1434 1436 1437 1438 1438 1439 1441 1442 1443 1445 1446 1447 1448 1450 1451 1452 1453 1454 1455 1456 1457 1458 1459 1460 1460 1461 1461 1461 1462 1462 1462 1463 1463 1464 1464 1465 1465 1466 1466 1466 1466 1467 1467 1467 1467 1467
1405 1404 1404 1405 1405 1405 1405 1406 1406 1406 1406 1406 1407 1407 1408 1409 1409 1410 1411 1411 1412 1414 1415 1416 1416 1418 1419 1420 1421 1422 1422 1423 1425 1426 1427 1428 1430 1431 1432 1433 1435 1436 1437 1437 1438 1439 1440 1441 1442 1444 1445 1446 1447 1449 1450 1451 1452 1453 1454 1455 1456 1457 1458 1458 1459 1460 1460 1460 1460 1460 1461 1461 1461 1462 1463 1463 1464 1464 1464 1464 1465 1465 1465 1465 1466 1466
1406 1406 1406 1406 1406 1406 1407 1407 1407 1407 1407 1408 1408 1408 1409 1409 1410 1411 1411 1412 1413 1414 1415 1416 1417 1418 1419 1420 1421 1422 1423 1424 1425 1426 1427 1428 1429 1431 1432 1433 1435 1436 1436 1437 1438 1439 1441 1441 1442 1443 1444 1445 1446 1448 1449 1450 1451 1452 1453 1454 1455 1456 1456 1457 1457 1458 1458 1458 1458 1458 1459 1459 1460 1461 1461 1461 1462 1462 1462 1463 1463 1463 1463 1463 1463 1463
1408 1408 1408 1408 1408 1408 1408 1408 1409 1409 1409 1409 1409 1410 1410 1410 1411 1411 1412 1412 1413 1414 1415 1416 1417 1418 1419 1420 1421 1422 1423 1424 1425 1426 1426 1428 1429 1430 1431 1433 1434 1435 1436 1437 1438 1439 1440 1441 1442 1443 1444 1445 1446 1447 1448 1450 1451 1451 1452 1453 1454 1454 1455 1455 1455 1456 1456 1456 1456 1457 1457 1458 1458 1459 1459 1460 1460 1461 1461 1461 1461 1461 1461 1461 1461 1461
1409 1409 1409 1410 1410 1410 1410 1410 1410 1410 1410 1411 1411 1411 1411 1411 1412 1412 1413 1413 1414 1415 1415 1416 1417 1418 1419 1420 1421 1422 1423 1424 1425 1425 1426 1427 1428 1430 1431 1432 1433 1435 1436 1436 1437 1438 1440 1441 1442 1443 1444 1445 1446 1447 1448 1449 1449 1450 1451 1452 1452 1452 1452 1453 1453 1453 1453 1454 1454 1455 1456 1456 1457 1457 1457 1458 1458 1458 1459 1459 1459 1459 1459 1459 1459 1459
1411 1411 1411 1411 1411 1411 1411 1411 1411 1411 1412 1412 1412 1412 1412 1412 1413 1413 1414 1414 1415 1415 1416 1416 1417 1418 1419 1420 1421 1421 1422 1423 1424 1425 1426 1427 1428 1429 1431 1432 1433 1434 1435 1436 1437 1438 1439 1440 1441 1442 1443 1444 1445 1446 1446 1447 1448 1449 1450 1450 1450 1451 1451 1451 1451 1451 1452 1452 1453 1453 1454 1455 1455 1456 1456 1456 1456 1456 1457 1457 1457 1457 1457 1457 1456 1457
1412 1412 1412 1413 1413 1413 1413 1413 1413 1413 1413 1413 1413 1413 1413 1413 1414 1414 1415 1415 1416 1416 1416 1417 1418 1418 1419 1419 1420 1421 1422 1423 1424 1425 1426 1426 1428 1429 1430 1431 1432 1433 1434 1435 1436 1437 1438 1439 1440 1441 1441 1442 1443 1444 1445 1445 1446 1447 1447 1448 1448 1449 1449 1449 1448 1449 1450 1451 1451 1452 1452 1453 1453 1454 1454 1454 1455 1455 1455 1455 1455 1455 1455 1455 1454 1454
1413 1414 1414 1414 1414 1414 1414 1414 1414 1414 1414 1414 1414 1414 1414 1414 1415 1415 1415 1416 1416 1417 1417 1418 1418 1419 1419 1420 1421 1421 1422 1423 1424 1425 1426 1426 1428 1429 1430 1431 1431 1432 1433 1435 1436 1436 1437 1438 1439 1439 1440 1441 1442 1442 1443 1444 1444 1445 1445 1446 1446 1447 1447 1446 1446 1447 1448 1449 1450 1450 1451 1451 1451 1452 1452 1452 1452 1453 1453 1453 1453 1452 1452 1452 1452 1452
1415 1415 1415 1415 1415 1416 1415 1415 1415 1415 1415 1415 1414 1414 1415 1415 1415 1416 1416 1416 1416 1417 1418 1418 1419 1419 1420 1420 1421 1422 1422 1423 1424 1425 1426 1427 1428 1429 1430 1430 1431 1432 1433 1434 1434 1435 1436 1437 1438 1438 1439 1440 1441 1441 1442 1442 1442 1443 1443 1444 1444 1445 1445 1445 1446 1446 1447 1447 1448 1448 1449 1449 1450 1450 1450 1450 1450 1451 1451 1451 1451 1451 1451 1450 1450 1450
1416 1416 1416 1416 1416 1416 1416 1416 1416 1416 1415 1415 1415 1415 1415 1416 1416 1416 1416 1417 1417 1417 1418 1419 1419 1420 1420 1421 1421 1422 1423 1424 1425 1426 1426 1427 1428 1429 1429 1430 1431 1431 1432 1433 1433 1434 1435 1436 1436 1437 1438 1439 1439 1440 1440 1441 1441 1441 1442 1442 1443 1443 1443 1444 1444 1445 1446 1446 1446 1446 1446 1447 1448 1448 1448 1448 1448 1448 1449 1449 1449 1449 1449 1448 1448 1448
1416 1417 1417 1417 1417 1417 1417 1417 1416 1416 1416 1416 1416 1416 1416 1416 1416 1416 1417 1417 1417 1418 1419 1419 1420 1420 1421 1421 1422 1423 1423 1424 1425 1426 1426 1427 1428 1428 1429 1430 1430 1431 1431 1432 1433 1433 1434 1435 1436 1436 1437 1438 1438 1438 1439 1439 1440 1440 1440 1441 1441 1442 1442 1442 1443 1443 1444 1444 1444 1444 1445 1445 1446 1446 1446 1446 1446 1446 1447 1447 1447 1447 1447 1447 1447 1446
1417 1418 1418 1418 1418 1418 1418 1417 1417 1417 1417 1416 1416 1416 1416 1417 1417 1417 1417 1418 1418 1419 1419 1420 1420 1421 1421 1422 1422 1423 1424 1424 1425 1425 1426 1426 1427 1428 1429 1429 1430 1431 1431 1432 1432 1433 1433 1434 1435 1435 1436 1436 1437 1437 1437 1438 1438 1439 1439 1439 1440 1441 1441 1441 1441 1441 1442 1442 1442 1443 1443 1443 1444 1444 1444 1444 1444 1445 1445 1445 1445 1445 1445 1445 1445 1445
1418 1418 1418 1419 1419 1418 1418 1418 1418 1417 1417 1417 1417 1417 1417 1417 1418 1418 1418 1418 1419 1419 1420 1420 1421 1421 1422 1422 1423 1423 1424 1424 1425 1425 1426 1426 1427 1427 1428 1429 1429 1430 1431 1431 1432 1433 1433 1434 1434 1435 1435 1436 1436 1436 1436 1436 1437 1437 1438 1438 1439 1439 1439 1439 1440 1440 1441 1441 1441 1441 1441 1441 1441 1441 1442 1442 1442 1442 1443 1443 1444 1444 1444 1444 1443 1443
1418 1419 1419 1419 1419 1419 1418 1418 1418 1418 1417 1417 1417 1417 1418 1418 1418 1418 1418 1419 1419 1420 1420 1421 1421 1422 1422 1423 1423 1423 1424 1424 1425 1425 1425 1426 1426 1427 1427 1428 1429 1429 1430 1431 1431 1432 1433 1433 1433 1434 1434 1435 1435 1435 1436 1436 1436 1436 1436 1437 1437 1438 1438 1438 1438 1439 1439 1439 1440 1440 1440 1440 1440 1440 1441 1441 1441 1441 1441 1441 1442 1442 1442 1442 1442 1441
1419 1419 1419 1419 1419 1419 1418 1418 1418 1418 1418 1418 1418 1418 1418 1418 1418 1418 1419 1419 1420 1420 1421 1421 1422 1422 1423 1423 1423 1424 1424 1424 1425 1425 1425 1426 1426 1426 1427 1427 1428 1429 1429 1430 1430 1431 1432 1432 1433 1433 1433 1433 1434 1434 1435 1434 1435 1435 1436 1436 1436 1436 1437 1437 1437 1437 1438 1438 1438 1438 1438 1439 1439 1439 1439 1439 1439 1439 1439 1440 1440 1440 1440 1440 1440 1440